Time,TemperatureF,DewpointF,PressureIn,WindDirection,WindDirectionDegrees,WindSpeedMPH,WindSpeedGustMPH,Humidity,HourlyPrecipIn,Conditions,Clouds,dailyrainin,SolarRadiationWatts/m^2,SoftwareType,DateUTC
2013-04-12 00:14:00,37.1,27.0,29.80,SW,229,2.0,8.0,67,0.00,,,0.00,0,weatherlink.com 1.10,2013-04-12 05:14:00,
2013-04-12 00:29:00,36.6,27.0,29.80,WNW,289,1.0,5.0,69,0.00,,,0.00,0,weatherlink.com 1.10,2013-04-12 05:29:00,
2013-04-12 00:44:00,36.2,27.0,29.80,WNW,299,3.0,7.0,70,0.00,,,0.00,0,weatherlink.com 1.10,2013-04-12 05:44:00,
2013-04-12 00:59:00,35.9,28.0,29.81,NW,313,2.0,7.0,72,0.00,,,0.00,0,weatherlink.com 1.10,2013-04-12 05:59:00,
2013-04-12 01:14:00,35.5,28.0,29.81,NW,304,2.0,4.0,73,0.00,,,0.00,0,weatherlink.com 1.10,2013-04-12 06:14:00,
2013-04-12 01:29:00,35.1,28.0,29.81,West,270,0.0,4.0,75,0.00,,,0.00,0,weatherlink.com 1.10,2013-04-12 06:29:00,
2013-04-12 01:44:00,34.6,28.0,29.81,SW,226,3.0,6.0,77,0.00,,,0.00,0,weatherlink.com 1.10,2013-04-12 06:44:00,
2013-04-12 01:59:00,34.2,28.0,29.81,SSW,209,3.0,6.0,78,0.00,,,0.00,0,weatherlink.com 1.10,2013-04-12 06:59:00,
2013-04-12 02:14:00,33.8,28.0,29.81,SW,233,1.0,5.0,79,0.00,,,0.00,0,weatherlink.com 1.10,2013-04-12 07:14:00,
2013-04-12 02:29:00,33.5,28.0,29.81,WNW,293,2.0,6.0,80,0.00,,,0.00,0,weatherlink.com 1.10,2013-04-12 07:29:00,
2013-04-12 02:44:00,33.6,28.0,29.81,WNW,296,2.0,8.0,81,0.00,,,0.00,0,weatherlink.com 1.10,2013-04-12 07:44:00,
2013-04-12 02:59:00,33.5,28.0,29.81,SW,230,5.0,8.0,81,0.00,,,0.00,0,weatherlink.com 1.10,2013-04-12 07:59:00,
2013-04-12 03:14:00,33.2,28.0,29.81,WNW,300,4.0,7.0,82,0.00,,,0.00,0,weatherlink.com 1.10,2013-04-12 08:14:00,
2013-04-12 03:29:00,33.0,28.0,29.82,WNW,293,3.0,8.0,82,0.00,,,0.00,0,weatherlink.com 1.10,2013-04-12 08:29:00,
2013-04-12 03:44:00,32.8,28.0,29.82,WNW,286,1.0,10.0,82,0.00,,,0.00,0,weatherlink.com 1.10,2013-04-12 08:44:00,
2013-04-12 03:59:00,32.5,28.0,29.82,WSW,237,1.0,7.0,83,0.00,,,0.00,0,weatherlink.com 1.10,2013-04-12 08:59:00,
2013-04-12 04:14:00,32.3,28.0,29.83,WNW,290,4.0,7.0,84,0.00,,,0.00,0,weatherlink.com 1.10,2013-04-12 09:14:00,
2013-04-12 04:29:00,32.1,28.0,29.84,West,280,3.0,7.0,84,0.00,,,0.00,0,weatherlink.com 1.10,2013-04-12 09:29:00,
2013-04-12 04:44:00,32.0,28.0,29.84,West,272,3.0,7.0,84,0.00,,,0.00,0,weatherlink.com 1.10,2013-04-12 09:44:00,
2013-04-12 04:59:00,32.1,28.0,29.84,NW,326,5.0,7.0,85,0.00,,,0.00,0,weatherlink.com 1.10,2013-04-12 09:59:00,
2013-04-12 05:14:00,32.2,28.0,29.84,West,259,2.0,9.0,84,0.00,,,0.00,0,weatherlink.com 1.10,2013-04-12 10:14:00,
2013-04-12 05:29:00,32.1,28.0,29.84,West,269,2.0,8.0,84,0.00,,,0.00,0,weatherlink.com 1.10,2013-04-12 10:29:00,
2013-04-12 05:44:00,31.8,28.0,29.84,WSW,242,1.0,7.0,84,0.00,,,0.00,0,weatherlink.com 1.10,2013-04-12 10:44:00,
2013-04-12 05:59:00,31.6,27.0,29.85,West,267,1.0,5.0,84,0.00,,,0.00,0,weatherlink.com 1.10,2013-04-12 10:59:00,
2013-04-12 06:14:00,31.7,28.0,29.85,West,274,2.0,7.0,85,0.00,,,0.00,0,weatherlink.com 1.10,2013-04-12 11:14:00,
2013-04-12 06:29:00,32.0,28.0,29.86,WNW,284,4.0,9.0,84,0.00,,,0.00,0,weatherlink.com 1.10,2013-04-12 11:29:00,
2013-04-12 06:44:00,32.4,28.0,29.86,WNW,290,5.0,8.0,83,0.00,,,0.00,0,weatherlink.com 1.10,2013-04-12 11:44:00,
2013-04-12 06:59:00,32.7,28.0,29.87,West,260,5.0,11.0,82,0.00,,,0.00,5,weatherlink.com 1.10,2013-04-12 11:59:00,
2013-04-12 07:14:00,33.0,28.0,29.87,WNW,297,4.0,9.0,81,0.00,,,0.00,12,weatherlink.com 1.10,2013-04-12 12:14:00,
2013-04-12 07:29:00,33.2,28.0,29.88,WNW,294,4.0,9.0,81,0.00,,,0.00,21,weatherlink.com 1.10,2013-04-12 12:29:00,
2013-04-12 07:44:00,33.3,28.0,29.89,NW,304,1.0,7.0,81,0.00,,,0.00,39,weatherlink.com 1.10,2013-04-12 12:44:00,
2013-04-12 07:59:00,33.4,28.0,29.90,WSW,237,5.0,9.0,81,0.00,,,0.00,56,weatherlink.com 1.10,2013-04-12 12:59:00,
2013-04-12 08:14:00,33.7,28.0,29.90,SW,215,2.0,12.0,81,0.00,,,0.00,88,weatherlink.com 1.10,2013-04-12 13:14:00,
2013-04-12 08:29:00,34.1,29.0,29.90,North,5,4.0,8.0,80,0.00,,,0.00,125,weatherlink.com 1.10,2013-04-12 13:29:00,
2013-04-12 08:45:00,34.7,29.0,29.91,WSW,249,3.0,11.0,79,0.00,,,0.00,169,weatherlink.com 1.10,2013-04-12 13:45:00,
2013-04-12 09:00:00,35.2,29.0,29.91,WSW,249,2.0,12.0,78,0.00,,,0.00,162,weatherlink.com 1.10,2013-04-12 14:00:00,
2013-04-12 09:15:00,36.6,30.0,29.92,NW,325,2.0,11.0,76,0.00,,,0.00,213,weatherlink.com 1.10,2013-04-12 14:15:00,
2013-04-12 09:30:00,36.9,29.0,29.93,WNW,301,3.0,13.0,74,0.00,,,0.00,199,weatherlink.com 1.10,2013-04-12 14:30:00,
2013-04-12 09:45:00,36.8,29.0,29.93,WSW,238,2.0,11.0,74,0.00,,,0.00,229,weatherlink.com 1.10,2013-04-12 14:45:00,
2013-04-12 10:00:00,38.0,30.0,29.93,SSW,213,3.0,8.0,73,0.00,,,0.00,322,weatherlink.com 1.10,2013-04-12 15:00:00,
2013-04-12 10:15:00,38.4,30.0,29.94,WNW,291,5.0,11.0,72,0.00,,,0.00,269,weatherlink.com 1.10,2013-04-12 15:15:00,
2013-04-12 10:30:00,38.7,30.0,29.94,NW,306,2.0,10.0,72,0.00,,,0.00,380,weatherlink.com 1.10,2013-04-12 15:30:00,
2013-04-12 10:45:00,39.0,30.0,29.95,West,277,2.0,12.0,70,0.00,,,0.00,348,weatherlink.com 1.10,2013-04-12 15:45:00,
2013-04-12 11:00:00,40.0,31.0,29.96,West,276,4.0,9.0,70,0.00,,,0.00,376,weatherlink.com 1.10,2013-04-12 16:00:00,
2013-04-12 11:15:00,40.9,31.0,29.96,WSW,243,5.0,11.0,68,0.00,,,0.00,881,weatherlink.com 1.10,2013-04-12 16:15:00,
2013-04-12 11:30:00,41.9,32.0,29.96,West,272,5.0,9.0,67,0.00,,,0.00,355,weatherlink.com 1.10,2013-04-12 16:30:00,
2013-04-12 11:45:00,41.7,31.0,29.97,WNW,298,8.0,9.0,65,0.00,,,0.00,396,weatherlink.com 1.10,2013-04-12 16:45:00,
2013-04-12 12:00:00,42.0,31.0,29.97,West,265,1.0,8.0,66,0.00,,,0.00,483,weatherlink.com 1.10,2013-04-12 17:00:00,
2013-04-12 12:15:00,43.2,32.0,29.97,West,261,3.0,9.0,65,0.00,,,0.00,568,weatherlink.com 1.10,2013-04-12 17:15:00,
2013-04-12 12:30:00,44.2,33.0,29.97,WNW,294,11.0,11.0,65,0.00,,,0.00,803,weatherlink.com 1.10,2013-04-12 17:30:00,
2013-04-12 12:45:00,45.5,33.0,29.97,NW,304,5.0,9.0,61,0.00,,,0.00,1046,weatherlink.com 1.10,2013-04-12 17:45:00,
2013-04-12 13:00:00,45.8,32.0,29.97,NW,318,4.0,9.0,60,0.00,,,0.00,1053,weatherlink.com 1.10,2013-04-12 18:00:00,
2013-04-12 14:39:00,49.9,34.0,29.97,NW,319,4.0,10.0,55,0.00,,,0.00,960,weatherlink.com 1.10,2013-04-12 19:39:00,
2013-04-12 14:54:00,50.5,33.0,29.96,WSW,244,4.0,8.0,52,0.00,,,0.00,888,weatherlink.com 1.10,2013-04-12 19:54:00,
2013-04-12 15:09:00,51.2,34.0,29.96,West,273,7.0,11.0,52,0.00,,,0.00,837,weatherlink.com 1.10,2013-04-12 20:09:00,
2013-04-12 15:24:00,51.2,34.0,29.96,SW,217,5.0,11.0,52,0.00,,,0.00,807,weatherlink.com 1.10,2013-04-12 20:24:00,
2013-04-12 15:39:00,51.3,34.0,29.95,WNW,288,5.0,10.0,51,0.00,,,0.00,773,weatherlink.com 1.10,2013-04-12 20:39:00,
2013-04-12 15:54:00,51.9,35.0,29.95,WNW,290,4.0,10.0,52,0.00,,,0.00,761,weatherlink.com 1.10,2013-04-12 20:54:00,
2013-04-12 16:09:00,52.4,34.0,29.95,West,273,6.0,12.0,50,0.00,,,0.00,172,weatherlink.com 1.10,2013-04-12 21:09:00,
2013-04-12 16:24:00,52.6,35.0,29.95,SSW,200,7.0,14.0,51,0.00,,,0.00,675,weatherlink.com 1.10,2013-04-12 21:24:00,
2013-04-12 16:39:00,52.9,34.0,29.95,West,272,2.0,11.0,49,0.00,,,0.00,517,weatherlink.com 1.10,2013-04-12 21:39:00,
2013-04-12 16:54:00,52.9,33.0,29.95,WSW,258,5.0,10.0,48,0.00,,,0.00,592,weatherlink.com 1.10,2013-04-12 21:54:00,
2013-04-12 17:10:00,53.4,34.0,29.95,WNW,292,3.0,10.0,48,0.00,,,0.00,552,weatherlink.com 1.10,2013-04-12 22:10:00,
2013-04-12 17:24:00,53.4,33.0,29.95,West,267,9.0,14.0,47,0.00,,,0.00,499,weatherlink.com 1.10,2013-04-12 22:24:00,
2013-04-12 17:39:00,53.5,34.0,29.95,WNW,295,3.0,13.0,47,0.00,,,0.00,359,weatherlink.com 1.10,2013-04-12 22:39:00,
2013-04-12 17:54:00,53.6,34.0,29.95,WNW,292,2.0,8.0,48,0.00,,,0.00,406,weatherlink.com 1.10,2013-04-12 22:54:00,
2013-04-12 18:09:00,53.5,34.0,29.95,WNW,288,2.0,8.0,47,0.00,,,0.00,339,weatherlink.com 1.10,2013-04-12 23:09:00,
2013-04-12 18:24:00,53.0,34.0,29.95,West,277,1.0,10.0,48,0.00,,,0.00,188,weatherlink.com 1.10,2013-04-12 23:24:00,
2013-04-12 18:39:00,52.7,35.0,29.95,NW,323,2.0,7.0,51,0.00,,,0.00,207,weatherlink.com 1.10,2013-04-12 23:39:00,
2013-04-12 18:54:00,52.1,34.0,29.95,NW,317,1.0,8.0,50,0.00,,,0.00,47,weatherlink.com 1.10,2013-04-12 23:54:00,
2013-04-12 19:09:00,51.7,34.0,29.95,NW,309,2.0,6.0,51,0.00,,,0.00,37,weatherlink.com 1.10,2013-04-13 00:09:00,
2013-04-12 19:24:00,51.1,34.0,29.95,WNW,297,5.0,5.0,52,0.00,,,0.00,25,weatherlink.com 1.10,2013-04-13 00:24:00,
2013-04-12 19:39:00,50.5,34.0,29.95,WNW,297,1.0,6.0,53,0.00,,,0.00,14,weatherlink.com 1.10,2013-04-13 00:39:00,
2013-04-12 19:54:00,49.7,34.0,29.96,NW,311,4.0,5.0,56,0.00,,,0.00,5,weatherlink.com 1.10,2013-04-13 00:54:00,
2013-04-12 20:09:00,48.9,34.0,29.97,NW,306,3.0,5.0,58,0.00,,,0.00,0,weatherlink.com 1.10,2013-04-13 01:09:00,
2013-04-12 20:24:00,48.1,35.0,29.98,NW,310,1.0,5.0,60,0.00,,,0.00,0,weatherlink.com 1.10,2013-04-13 01:24:00,
2013-04-12 20:39:00,47.4,34.0,29.99,WNW,284,2.0,6.0,61,0.00,,,0.00,0,weatherlink.com 1.10,2013-04-13 01:39:00,
2013-04-12 20:54:00,46.7,34.0,30.00,NNE,12,0.0,4.0,62,0.00,,,0.00,0,weatherlink.com 1.10,2013-04-13 01:54:00,
2013-04-12 21:09:00,46.2,34.0,30.00,NW,318,2.0,6.0,62,0.00,,,0.00,0,weatherlink.com 1.10,2013-04-13 02:09:00,
2013-04-12 21:25:00,45.7,34.0,30.01,NW,323,0.0,4.0,63,0.00,,,0.00,0,weatherlink.com 1.10,2013-04-13 02:25:00,
2013-04-12 21:40:00,45.1,33.0,30.00,NW,326,2.0,3.0,64,0.00,,,0.00,0,weatherlink.com 1.10,2013-04-13 02:40:00,
2013-04-12 21:55:00,44.5,33.0,30.01,NW,326,0.0,3.0,64,0.00,,,0.00,0,weatherlink.com 1.10,2013-04-13 02:55:00,
2013-04-12 22:10:00,44.1,33.0,30.02,NW,326,0.0,1.0,65,0.00,,,0.00,0,weatherlink.com 1.10,2013-04-13 03:10:00,
2013-04-12 22:25:00,43.6,33.0,30.03,NW,326,0.0,1.0,66,0.00,,,0.00,0,weatherlink.com 1.10,2013-04-13 03:25:00,
2013-04-12 22:40:00,43.1,32.0,30.03,NW,326,0.0,0.0,66,0.00,,,0.00,0,weatherlink.com 1.10,2013-04-13 03:40:00,
2013-04-12 22:55:00,42.4,32.0,30.04,NW,326,0.0,0.0,68,0.00,,,0.00,0,weatherlink.com 1.10,2013-04-13 03:55:00,
2013-04-12 23:10:00,41.7,32.0,30.04,NW,326,0.0,1.0,69,0.00,,,0.00,0,weatherlink.com 1.10,2013-04-13 04:10:00,
2013-04-12 23:25:00,41.3,32.0,30.04,NW,326,0.0,2.0,70,0.00,,,0.00,0,weatherlink.com 1.10,2013-04-13 04:25:00,
2013-04-12 23:40:00,41.1,32.0,30.04,NW,326,0.0,2.0,71,0.00,,,0.00,0,weatherlink.com 1.10,2013-04-13 04:40:00,
2013-04-12 23:55:00,41.0,32.0,30.05,NW,326,0.0,1.0,71,0.00,,,0.00,0,weatherlink.com 1.10,2013-04-13 04:55:00,